Location: Cedar Brake
(32.2526°N, 97.8459°W)
Time: 09:01:01
(UTC+00:00)

Cosmos 1346 Rocket - Pass Details

Date: 22 April 2026
Orbit: 472 x 484 km, 81.2° (Epoch: 15 May)

Event Time Altitude Azimuth Distance (km) Brightness Sun altitude
Rises 02:34:19 0° 5° (N) 2,521 6.5 -18.3°
Reaches altitude 10° 02:36:38 10° 18° (NNE) 1,639 5.3 -18.7°
Enters shadow 02:38:32 22° 45° (NE) 1,079 4.1 -19.1°
